Simultaneous Nadir Overpasses (SNOs) Predictions

Prediction of SNOs between AQUA and METOP-C Satellite Orbit:

Table of predicted SNOs for the next 14.0 days since TLE Epoch: 12/14/2024
Index Date (AQUA) Time (AQUA) Lat,Lon (AQUA) SZA (AQUA ) Date (METOP-C) Time (METOP-C) Lat,Lon (METOP-C) SZA (METOP-C ) Distance(km) Time Diff (sec)
1 12/14/2024 11:05:55 -75.97,-166.02 80.85 12/14/2024 11:04:55 -75.98,-165.88 80.85 3.84 60
2 12/14/2024 11:55:16 76.00, 1.55 99.18 12/14/2024 11:55:34 76.02, 1.59 99.20 1.88 18
3 12/17/2024 00:45:27 75.96, 169.20 99.25 12/17/2024 00:44:31 75.96, 169.16 99.25 1.11 56
4 12/17/2024 01:34:47 -76.01, -23.29 80.70 12/17/2024 01:35:11 -76.04, -23.25 80.68 3.08 24
5 12/19/2024 14:24:57 -75.99, 144.28 80.66 12/19/2024 14:24:08 -75.97, 144.29 80.69 2.87 49
6 12/19/2024 15:14:18 76.02, -48.16 99.37 12/19/2024 15:14:47 76.01, -48.24 99.36 2.94 29
7 12/22/2024 04:04:26 75.99, 119.48 99.35 12/22/2024 04:03:43 75.97, 119.41 99.33 2.51 43
8 12/22/2024 04:53:46 -76.04, -73.01 80.61 12/22/2024 04:54:23 -76.05, -73.01 80.60 0.88 37
9 12/24/2024 17:43:52 -75.98, 94.70 80.71 12/24/2024 17:43:19 -76.00, 94.61 80.69 3.39 33
10 12/24/2024 18:33:13 76.07, -97.90 99.38 12/24/2024 18:33:57 76.04, -97.91 99.36 2.62 44
11 12/27/2024 07:23:18 76.04, 69.73 99.26 12/27/2024 07:22:52 76.03, 69.82 99.26 2.47 26



Historial Predications of SNOs between AQUA and METOP-C
